Location: Azul
(36.7830°S, 59.8500°W)
Time: 00:01:00
(UTC-03:00)

FO-29 - Pass Details

Date: 26 October 2021
Orbit: 799 x 1322 km, 98.5° (Epoch: 28 November)

Event Time Altitude Azimuth Distance (km) Brightness Sun altitude
Rises 20:33:16 0° 147° (SSE) 4,175 12.7 -13.2°
Reaches altitude 10° 20:37:10 10° 128° (SE) 3,274 12.0 -13.9°
Maximum altitude 20:41:47 17° 90° (E) 2,827 11.4 -14.7°
Enters shadow 20:42:33 17° 83° (E) 2,846 11.4 -14.8°
